CAPE
382 752 1016 1201 1228 1039 965 1063 964 917 905 958 880 667 608 320 19 0 0 0 0 0 0 0 0 0 0 3 0 0 0 2 2 4 4 5 1 13 21 35 16 11 11
14 237 825 972 948 891 987 852 773 855 934 861 489 220 93 1 0 0 0 1 0 0 1 2 0 1 3 0 2 0 0 2 3 2 22 12 9 19 40 40 27 0 0
0 48 211 665 858 994 1121 843 668 671 718 576 201 56 12 0 0 1 0 0 0 1 0 0 0 2 2 2 0 0 0 0 4 3 4 6 18 17 28 33 32 1 0
0 0 27 183 383 630 783 734 778 808 663 316 54 52 1 0 0 0 0 0 0 0 0 0 0 0 0 0 0 0 0 0 0 4 7 2 4 5 13 47 19 3 1
0 0 3 66 94 127 207 341 434 506 259 120 21 2 0 0 0 1 1 0 0 0 0 0 0 0 0 0 0 0 0 1 0 9 2 3 3 3 0 29 2 0 3
0 0 0 0 49 145 160 134 62 39 34 21 3 2 2 0 0 1 0 1 0 0 0 0 0 0 0 0 0 0 0 0 9 7 6 2 0 2 22 5 3 2 3
0 0 0 0 0 0 2 5 2 2 2 2 2 2 2 2 0 1 1 0 0 0 0 0 0 0 0 0 0 0 0 0 0 32 13 7 3 15 2 2 4 3 4
0 0 0 0 0 0 0 0 0 1 4 5 2 0 0 0 0 1 0 0 0 0 0 0 0 0 0 0 0 0 0 3 1 0 9 12 8 0 0 0 2 8 3
0 0 0 0 0 0 0 0 0 0 0 0 1 0 0 0 0 0 0 0 0 0 0 0 0 0 0 0 0 0 0 0 0 0 0 0 0 0 0 5 7 4 2
0 0 0 0 0 0 0 0 0 0 0 0 0 0 0 0 0 0 0 0 1 0 0 0 0 0 0 0 0 0 0 0 0 0 0 0 0 0 0 3 8 8 7
0 0 0 0 0 0 0 0 0 1 4 4 4 6 4 1 0 0 0 0 0 0 0 0 0 0 1 0 0 0 0 0 0 1 3 4 4 0 2 4 3 3 2
0 0 0 0 0 0 0 1 3 6 4 2 0 0 0 0 0 1 3 2 1 0 2 1 0 0 0 0 0 0 0 0 0 0 0 1 1 1 3 3 2 1 0
2 3 4 2 1 2 3 3 6 3 2 0 0 0 0 0 0 0 0 2 8 0 0 0 0 0 0 0 0 0 1 0 0 0 0 0 0 0 2 3 2 1 1
0 5 4 4 2 1 1 1 1 1 0 0 0 0 0 0 0 0 0 0 0 0 0 0 1 0 1 1 0 0 0 0 0 0 0 0 0 1 5 4 5 4 5
0 5 5 4 4 2 1 0 0 0 0 1 3 1 2 1 0 0 0 0 0 0 0 0 1 1 1 1 1 2 3 0 0 0 0 0 1 1 5 6 3 4 4
5 7 7 8 8 7 2 1 0 0 0 0 0 0 0 0 0 0 0 0 0 0 1 2 4 3 2 1 2 4 3 0 0 0 0 0 1 3 4 4 4 5 9
5 5 3 4 4 5 3 4 5 0 0 0 0 0 0 0 0 0 0 0 0 0 4 4 5 3 1 1 2 3 4 1 0 0 0 0 2 7 4 3 3 8 13
6 0 9 7 2 1 1 4 3 16 21 12 0 0 0 0 0 0 0 0 2 2 10 7 5 1 1 1 4 4 2 1 0 0 0 0 1 6 6 3 5 16 3
3 3 3 5 3 2 2 14 5 6 11 4 5 0 0 0 0 0 0 5 8 19 17 16 9 15 4 5 4 1 1 2 1 0 0 0 0 6 5 5 4 2 4
6 0 1 9 9 8 12 4 3 3 4 3 3 8 6 5 3 1 1 1 6 18 19 16 10 11 8 6 1 1 1 3 3 1 1 0 0 1 4 4 4 9 12
2 1 0 2 10 12 4 10 9 8 8 6 6 3 2 6 6 2 1 1 8 8 18 14 10 11 9 5 6 3 2 2 3 1 0 0 0 0 1 3 8 11 11
0 0 0 0 3 13 20 17 22 13 7 5 5 4 3 1 9 5 1 1 4 13 12 9 11 10 5 6 11 2 6 4 3 2 1 0 0 0 0 3 7 14 13
9 9 9 7 8 4 8 11 17 11 10 11 8 6 5 9 8 4 1 0 3 5 3 3 2 5 3 1 1 5 8 8 3 1 1 1 0 0 0 1 7 11 12
7 9 7 7 9 10 9 10 16 9 5 9 15 12 6 3 7 4 0 3 3 0 1 1 6 3 5 4 2 2 2 1 1 0 0 1 1 1 0 0 2 9 12
6 7 8 7 7 6 10 9 8 3 5 10 9 11 5 5 12 6 6 5 3 2 1 1 1 0 0 0 0 0 0 0 1 0 0 0 1 1 1 0 0 3 7
2 3 5 6 6 7 7 6 7 8 8 9 8 8 9 6 5 7 6 5 3 2 2 2 2 1 0 0 0 0 0 0 1 0 1 0 1 3 1 1 1 0 3
CIN
-434 -377 -343 -328 -319 -307 -328 -316 -331 -314 -284 -252 -255 -258 -229 -239 -324 0 0 0 0 0 0 0 0 0 0 0 0 0 0 0 0 0 0 0 0 0 0 0 -1 -1 0
-560 -445 -338 -301 -275 -297 -306 -327 -314 -302 -258 -242 -277 -318 -321 -382 0 0 0 0 0 0 0 0 0 0 0 0 0 0 0 0 0 0 0 0 0 0 0 0 0 0 0
0 -455 -402 -350 -295 -242 -198 -222 -250 -254 -241 -253 -285 -345 -391 0 0 0 0 0 0 0 0 0 0 0 0 0 0 0 0 0 0 0 0 0 0 0 0 0 0 -12 0
0 0 -383 -354 -322 -268 -225 -220 -211 -198 -188 -231 -329 -291 0 0 0 0 0 0 0 0 0 0 0 0 0 0 0 0 0 0 0 0 0 0 0 0 0 0 0 0 0
0 0 -197 -314 -349 -352 -310 -248 -213 -189 -257 -298 -323 -83 0 0 0 0 0 0 0 0 0 0 0 0 0 0 0 0 0 0 0 0 0 0 0 0 0 0 0 0 0
0 0 0 0 -291 -229 -238 -258 -294 -297 -295 -288 0 0 0 0 0 0 0 0 0 0 0 0 0 0 0 0 0 0 0 0 0 0 0 0 0 0 0 0 0 0 0
0 0 0 0 0 0 0 0 0 0 0 0 0 0 0 0 0 0 0 0 0 0 0 0 0 0 0 0 0 0 0 0 0 -5 0 0 0 0 0 0 0 0 0
0 0 0 0 0 0 0 0 0 0 0 0 0 0 0 0 0 0 0 0 0 0 0 0 0 0 0 0 0 0 -1 -10 0 0 0 0 0 0 0 0 0 0 0
0 0 0 0 0 0 0 0 0 0 0 0 0 0 0 0 0 0 0 0 0 0 0 0 0 0 0 0 0 0 0 0 0 0 0 0 0 0 0 0 0 0 0
0 0 0 0 0 0 0 0 0 0 0 0 0 0 0 0 0 0 0 0 0 0 0 0 0 0 -1 0 0 0 0 0 0 0 0 0 0 0 0 0 0 0 0
0 0 0 0 0 0 0 0 0 0 0 0 0 0 0 0 0 0 0 0 0 0 0 0 0 -2 -4 -4 0 0 0 0 0 0 0 0 0 0 0 0 0 0 0
0 0 0 0 0 0 0 0 0 0 0 0 0 0 0 0 0 -1 -1 -2 -1 -1 0 -1 -2 -1 0 0 0 0 0 0 0 0 0 0 0 0 0 0 0 0 0
0 0 0 0 0 0 0 0 0 0 0 0 0 0 0 0 0 0 0 -6 -3 -1 0 0 0 0 0 0 0 0 0 0 0 0 0 0 0 0 0 0 0 0 0
0 0 0 0 0 0 0 0 0 0 0 0 0 0 0 0 0 0 0 0 0 0 0 0 0 0 0 0 0 0 0 0 0 0 0 0 0 0 0 0 0 0 0
0 0 0 0 0 0 0 0 0 0 0 0 0 0 -1 0 0 0 0 0 0 0 0 0 0 0 0 0 0 0 0 0 0 0 0 0 0 0 0 0 0 0 0
0 0 0 0 0 0 0 0 0 0 0 0 0 0 0 0 0 0 0 0 0 0 0 0 0 0 0 0 0 0 0 0 0 0 0 0 0 0 0 0 0 0 0
0 0 0 0 0 0 0 0 0 0 0 0 0 0 0 0 0 0 0 0 0 0 0 0 0 0 0 0 0 0 0 0 0 0 0 0 0 0 0 0 0 0 0
0 -1 0 0 0 0 0 0 0 0 0 0 0 0 0 0 0 0 0 0 0 0 0 0 0 0 0 0 0 0 0 0 0 0 0 0 0 0 0 0 0 0 0
0 0 0 0 0 0 0 0 0 -7 -5 -5 0 0 0 0 0 0 0 0 0 0 0 0 0 0 0 0 0 0 0 0 0 0 0 0 0 0 0 0 0 0 0
0 0 -1 0 -1 0 0 0 0 0 0 0 0 -1 0 -1 0 0 0 0 0 0 0 0 0 0 0 0 0 0 0 0 0 0 0 0 0 0 0 0 0 0 0
0 0 0 0 0 -2 -6 -1 0 0 0 0 0 0 0 0 0 0 0 0 0 0 0 0 0 0 0 0 0 0 0 0 0 0 0 0 0 0 0 0 0 0 0
0 0 0 0 0 0 0 0 0 0 0 0 0 0 0 0 -2 0 0 0 0 0 0 0 0 0 0 0 0 0 0 0 0 0 0 0 0 0 0 0 0 0 0
0 0 0 0 0 0 0 0 0 0 0 0 0 0 0 0 0 0 0 0 0 0 0 0 0 0 0 0 0 0 0 0 0 0 0 0 0 0 0 0 0 0 0
0 0 0 0 0 0 0 0 0 0 0 0 0 0 0 0 0 0 0 0 0 0 0 0 0 0 0 0 0 0 0 0 0 0 0 0 0 0 0 0 0 0 0
0 0 0 0 0 0 0 0 0 0 0 0 0 0 0 0 0 0 0 0 0 0 0 0 0 0 0 0 0 0 0 0 0 0 0 0 0 0 0 0 0 0 0
0 0 0 0 0 0 0 0 0 0 0 0 0 0 0 0 0 0 0 0 0 0 0 0 0 0 0 0 0 0 0 0 0 0 0 0 0 0 0 0 0 0 0
Wind_Speed
13 14 14 14 14 13 13 13 13 12 13 13 12 11 11 10 9 9 9 9 10 10 10 12 13 13 10 9 8 8 8 6 7 7 6 6 6 8 7 6 5 5 4
12 12 14 12 12 13 12 13 9 11 12 14 9 9 9 9 9 11 11 11 14 14 15 14 14 10 14 11 10 11 8 9 7 10 7 5 7 6 7 7 5 4 4
12 10 11 12 12 12 12 8 10 10 11 10 10 10 10 10 10 12 13 13 14 16 16 17 17 15 14 12 11 9 8 5 9 6 6 4 5 5 7 7 7 6 4
10 10 10 10 10 9 9 10 13 13 13 10 9 11 11 11 12 12 12 13 13 13 14 13 13 17 17 14 8 10 8 8 7 7 5 5 6 3 7 7 6 4 5
12 11 10 10 9 9 9 11 12 12 10 10 10 11 11 12 10 13 14 15 14 14 13 16 17 17 16 13 9 9 10 9 6 6 5 4 4 4 6 5 4 3 4
14 14 14 13 10 9 9 10 9 10 10 10 11 11 10 8 10 17 15 13 15 16 16 15 14 12 10 9 7 5 7 7 9 5 4 5 7 5 5 4 3 1 3
13 14 14 13 13 13 11 10 8 7 6 7 7 8 11 10 9 13 15 11 12 11 10 8 4 6 7 7 5 4 3 3 4 7 8 7 7 7 5 5 5 4 3
14 14 14 13 12 12 11 11 10 8 8 7 6 6 6 3 5 5 7 3 7 8 9 3 8 9 7 5 4 2 3 5 7 6 10 8 7 6 6 4 4 2 2
16 16 16 16 15 14 14 13 11 9 9 7 6 6 4 1 8 11 11 7 8 7 7 7 5 7 6 9 6 7 5 4 2 7 8 5 8 8 6 5 3 3 2
13 13 12 13 13 14 13 13 12 11 11 8 8 6 1 3 5 10 9 7 8 7 7 7 6 5 4 6 5 6 6 5 4 2 2 5 8 8 9 6 5 4 2
11 10 12 12 12 12 11 11 11 11 10 9 8 8 8 9 9 14 13 6 4 3 4 3 4 4 7 7 7 5 6 4 4 5 5 5 5 4 4 4 4 3 3
10 11 12 12 10 10 12 11 12 11 9 8 8 9 9 9 13 12 12 10 6 3 2 2 3 9 11 10 7 8 9 5 3 4 4 4 4 3 3 3 3 2 2
10 11 11 11 11 12 12 11 9 10 8 8 7 7 7 5 5 8 8 7 4 3 2 3 6 8 8 5 7 8 5 4 5 4 5 4 4 4 4 4 2 3 3
10 9 7 8 8 8 5 5 6 6 5 4 3 3 3 3 3 3 2 2 2 1 3 2 2 4 4 4 3 5 3 4 5 5 4 4 4 6 3 3 3 2 2
10 10 9 8 9 7 6 5 5 2 4 4 3 3 2 2 3 4 4 3 4 3 2 1 2 3 2 3 3 3 3 4 5 4 4 4 5 6 3 4 3 3 2
8 7 6 6 5 5 6 6 9 10 12 10 10 4 3 6 9 10 10 8 8 7 2 2 3 3 3 2 3 2 2 4 4 4 5 5 6 7 6 4 3 3 4
9 8 6 6 6 6 6 6 6 6 6 7 9 10 10 9 11 10 10 6 8 6 2 2 2 3 3 3 3 3 3 3 3 4 5 6 6 6 7 6 5 4 5
9 8 6 6 6 6 6 4 4 5 6 6 6 7 8 11 10 8 1 5 2 3 2 3 3 3 2 2 2 3 3 3 3 4 5 6 6 7 7 6 6 6 7
7 6 6 6 5 7 6 7 6 5 5 6 5 5 6 8 7 5 3 2 2 3 3 3 3 3 2 2 2 1 1 2 3 4 4 5 6 6 6 6 6 7 8
7 6 6 6 6 6 5 6 6 6 7 7 7 6 6 5 6 5 2 3 3 3 2 2 2 2 2 2 1 1 1 2 3 4 4 5 5 6 6 7 7 7 7
7 8 10 7 6 6 4 4 5 5 6 6 7 7 11 7 5 5 5 3 3 3 3 2 2 1 1 2 2 2 2 2 3 3 4 4 5 6 6 6 6 7 7
8 8 8 8 8 8 7 6 6 6 5 6 7 7 11 7 6 6 5 3 3 2 1 1 1 1 1 1 2 2 2 2 3 3 4 4 5 5 6 7 7 7 8
8 9 9 8 8 10 9 8 7 6 6 6 7 7 8 7 7 7 4 2 1 1 1 1 1 1 1 1 2 2 3 3 2 3 4 4 5 5 6 7 8 8 8
9 9 10 9 8 8 8 9 8 7 7 7 8 8 8 8 8 9 2 1 2 3 2 2 2 2 2 1 1 1 2 2 2 3 5 4 5 6 6 6 7 9 8
8 9 9 9 10 10 10 9 9 8 8 8 9 9 9 8 7 7 2 4 5 6 6 6 5 6 6 7 5 3 2 3 3 3 3 4 6 7 6 6 7 7 8
9 10 9 9 9 9 9 9 9 9 9 9 9 9 9 8 8 7 7 7 6 6 7 6 7 9 9 6 7 8 4 4 4 4 3 3 4 5 5 6 9 6 8
Wind_Direction
250 244 238 240 239 241 238 239 238 238 235 236 230 227 224 214 206 198 194 180 189 187 187 189 196 189 204 199 195 199 200 203 221 234 235 219 217 229 247 233 222 236 229
272 249 243 242 239 237 236 241 234 237 238 240 230 215 211 207 196 195 188 190 191 190 189 195 200 194 206 193 200 196 204 197 209 235 209 201 216 250 247 231 219 210 252
291 268 255 244 231 237 247 247 238 237 238 225 218 212 206 199 200 202 197 193 195 199 195 195 199 193 199 198 198 198 197 190 214 207 221 216 218 223 226 228 225 232 238
320 296 286 274 256 244 238 236 238 239 239 221 211 213 206 200 201 203 200 199 204 202 196 197 199 196 197 195 186 193 191 202 206 209 207 207 218 185 228 224 223 226 285
14 4 340 323 303 288 272 265 264 256 241 222 215 216 211 208 202 206 202 199 196 197 191 202 201 201 188 182 182 183 197 212 204 202 203 187 174 186 208 188 229 280 306
18 22 16 8 353 333 305 292 281 261 253 243 245 242 246 240 223 212 206 202 201 201 202 203 197 161 149 141 139 147 192 185 215 209 198 222 220 206 195 192 205 193 307
17 17 17 18 16 8 353 336 332 304 296 272 265 258 253 245 242 228 221 213 212 216 210 185 118 53 98 124 131 170 224 278 279 256 233 224 231 217 181 173 193 195 226
9 9 11 11 12 11 9 8 358 346 331 305 290 275 266 269 267 202 163 113 115 123 116 84 112 136 127 112 124 149 232 213 213 224 232 216 231 198 193 181 162 124 278
6 360 4 5 3 5 6 360 357 348 340 327 300 287 258 30 128 128 130 117 105 87 76 91 104 104 123 140 156 181 216 237 262 237 239 199 181 166 167 152 158 168 238
353 352 359 5 4 3 1 358 350 350 342 340 334 322 333 126 105 95 104 115 113 116 110 98 83 96 149 189 204 185 202 223 180 189 181 192 178 172 170 195 174 179 171
353 4 12 14 9 6 360 7 2 359 0 7 10 22 39 65 57 55 54 59 72 73 78 80 115 174 179 183 191 193 211 181 196 200 202 195 181 162 161 184 177 165 166
8 15 20 19 14 8 9 12 18 13 24 32 44 46 39 44 43 46 49 48 54 80 150 171 212 206 211 192 192 212 212 203 190 194 184 195 159 154 156 159 178 187 194
23 27 26 37 32 29 24 28 40 42 50 43 41 38 23 12 15 9 349 338 255 184 172 201 203 220 232 229 214 214 200 192 187 193 200 185 156 142 142 122 114 110 92
22 22 27 35 37 37 33 31 41 31 36 41 41 4 337 341 340 336 312 307 165 88 143 156 229 252 243 251 235 219 204 212 200 199 200 143 140 136 146 146 122 150 102
27 27 21 17 17 10 13 12 12 336 347 337 333 312 304 298 270 293 277 222 192 170 114 209 216 214 218 208 223 205 207 202 193 179 157 163 163 136 151 151 131 139 142
29 16 14 11 6 7 3 355 5 359 353 1 2 354 320 302 319 322 308 255 182 158 193 222 227 228 241 221 230 206 206 211 197 175 149 167 171 152 148 135 137 166 167
20 13 6 5 1 356 360 359 352 340 327 347 346 342 333 322 323 321 313 252 181 148 233 230 238 235 232 218 216 207 212 206 169 170 157 167 169 150 146 147 162 170 164
21 11 3 358 359 359 357 333 329 335 343 348 339 334 351 347 332 327 77 114 156 215 233 244 236 239 240 233 218 217 203 163 179 163 161 163 163 152 148 159 164 170 169
13 6 358 354 352 352 351 349 345 344 341 345 341 351 345 334 346 349 186 261 267 248 232 238 239 252 253 228 221 225 159 189 170 165 166 162 158 153 162 160 153 167 166
345 330 319 339 340 342 347 343 347 350 347 344 345 341 343 336 347 337 272 251 247 257 256 240 233 249 248 251 236 192 170 188 174 166 164 160 157 163 165 160 160 165 173
332 335 339 329 325 324 316 316 324 329 332 331 333 338 334 319 319 317 311 278 253 251 237 229 222 238 244 220 218 209 201 187 182 166 156 158 160 167 161 168 165 168 161
339 335 329 321 320 321 327 319 318 316 320 324 324 323 328 325 323 314 308 292 267 265 229 191 177 198 264 255 241 211 211 192 179 170 158 158 167 164 162 166 165 170 165
349 343 338 339 338 334 327 321 317 317 321 325 328 326 327 323 316 317 308 319 331 114 140 153 135 97 296 267 239 240 224 226 209 169 166 166 168 169 167 168 173 170 168
356 354 351 346 342 338 338 331 324 338 333 325 322 321 317 314 307 309 268 45 57 55 40 53 44 3 310 332 267 223 229 215 206 198 175 171 171 165 165 167 169 173 167
5 1 4 3 3 357 350 350 350 346 342 342 338 329 321 311 299 298 73 63 56 59 46 38 27 22 19 22 13 338 264 215 211 185 171 169 171 167 169 170 169 171 168
13 12 9 5 5 2 2 2 4 3 3 360 356 353 351 353 11 26 35 48 57 55 45 34 21 16 9 5 351 328 285 214 188 183 169 167 169 167 170 169 171 172 172